Regional Weather Roundup
Issued by NWS

Home | Current Version | Previous Version | Graphics & Text | Print | Product List | Glossary On
Versions: 1 2 3 4 5 6 7 8 9 10 11 12 13 14 15 16 17 18 19 20 21 22 23 24 25 26 27 28 29 30 31 32 33 34 35 36 37 38 39 40 41 42 43 44 45 46 47 48 49 50
000
ASUS45 KCYS 261410
RWRWY

WYOMING REGIONAL WEATHER ROUNDUP
NATIONAL WEATHER SERVICE CHEYENNE WY
800 AM MDT TUE SEP 26 2017

NOTE:  "FAIR" INDICATES FEW OR NO CLOUDS BELOW 12,000 FEET
WITH NO SIGNIFICANT WEATHER AND/OR OBSTRUCTIONS TO VISIBILITY.

WYZ001-261500-
YELLOWSTONE NATIONAL PARK

CITY           SKY/WX    TMP DP  RH WIND       PRES   REMARKS
LK YELLOWSTONE NOT AVBL
W YELLOWSTONE  NOT AVBL

$$
WYZ002>013-054>058-071-098>099-261500-
NORTHERN WYOMING

CITY           SKY/WX    TMP DP  RH WIND       PRES   REMARKS
JACKSON        CLOUDY    32  30  92 CALM      30.26R
CODY           CLOUDY    39  34  82 CALM      30.18R
GREYBULL       CLOUDY    42  40  92 SE3       30.17R
WORLAND        FAIR      38  37  97 SW3       30.17R
SHERIDAN       FAIR      39  36  89 NE5       30.14R
BUFFALO        MOCLDY    47  29  49 W5        30.15R
GILLETTE       FAIR      44  35  70 W10       30.12R
HULETT         FAIR      43  39  87 SW9       30.13R
NEWCASTLE      FAIR      37  37 100 CALM      30.16S

$$
WYZ014>020-022>026-101>103-261500-
CENTRAL WYOMING

CITY           SKY/WX    TMP DP  RH WIND       PRES   REMARKS
BIG PINEY      FAIR      25  23  92 CALM      30.24R
PINEDALE       FAIR      27  25  93 CALM      30.25R
DUBOIS         FAIR      30  27  86 NW7       30.22R WCI  23
LANDER         FAIR      38  31  76 CALM      30.19R
RIVERTON       FAIR      35  30  82 W12       30.20R WCI  27
CASPER         FAIR      36  34  92 SW9       30.19R WCI  29
DOUGLAS        FAIR      35  33  92 CALM      30.19R

$$
WYZ021-027>030-104>119-261500-
SOUTHERN WYOMING

CITY           SKY/WX    TMP DP  RH WIND       PRES   REMARKS
EVANSTON       FAIR      30  27  88 E7        30.22R WCI  23
FORT BRIDGER   FAIR      32  31  99 CALM      30.26R
ROCK SPRINGS   FAIR      31  28  89 CALM      30.23R
DIXON          FAIR      31  27  84 E3        30.26R
RAWLINS        FAIR      33  29  85 CALM      30.23R
SARATOGA       FAIR      32  28  86 CALM      30.24R
LARAMIE        FAIR      29  26  89 S5        30.22R WCI  24
CHEYENNE       FAIR      37  36  96 NW7       30.20S WCI  32
TORRINGTON     FOG       37  37 100 NW8       30.17R VSB<1/4 WCI  31
PINE BLUFFS    FAIR      39  39 100 MISG      30.21R

$$



USA.gov is the U.S. government's official web portal to all federal, state and local government web resources and services.